Charlottetown, Prince Edward Island

7:01 AM AST on February 10, 2016 (GMT -0400)
Charlottetown

Weather History for CYYG - January, 2013

Change the Weather History Date:

Sunday, January 20, 2013

  Actual Average Record
Temperature  
Mean Temperature 32 °F -  
Max Temperature 42 °F 26 °F 42 °F (2013)
Min Temperature 21 °F 10 °F 1 °F (2000)
Degree Days  
Heating Degree Days 34    
Moisture  
Dew Point 28 °F    
Average Humidity 88    
Maximum Humidity 100    
Minimum Humidity 70    
Precipitation  
Precipitation 0.08 in 0.13 in - ()
Sea Level Pressure  
Sea Level Pressure 29.73 in    
Wind  
Wind Speed 9 mph ()    
Max Wind Speed 24 mph    
Max Gust Speed 34 mph    
Visibility 11.0 miles    
Events Rain , Snow    
Averages and records for this station are not official NWS values.
T = Trace of Precipitation, MM = Missing Value Source: Averaged Metar Reports

Daily Weather History Graph

Daily Weather History Graph

Search for Another Location

Airport or City:

Trip Planner

Search our weather history database for the weather conditions in past years. The results will help you decide how hot, cold, wet, or windy it might be!

Date:

Astronomy

Jan. 20, 2013 Rise Set
Actual Time 7:47 AM AST 5:00 PM AST
Civil Twilight 7:14 AM AST 5:33 PM AST
Nautical Twilight 6:37 AM AST 6:10 PM AST
Astronomical Twilight 6:01 AM AST 6:45 PM AST
Moon 11:59 AM AST (1/20) 2:13 AM AST (1/20)
Length of Visible Light 10h 18m
Length of Day
9h 12m
Waxing Gibbous, 66% of the Moon is Illuminated
Jan 20
Waxing Gibbous
Jan 27
Full
Feb 3
Last Quarter
Feb 10
New
Feb 17
First Quarter

Hourly Weather History & Observations

Time (AST) Temp. Windchill Dew Point Humidity Pressure Visibility Wind Dir Wind Speed Gust Speed Precip Events Conditions
12:00 AM 23.0 °F - 19.4 °F 86% 30.07 in 15.0 mi North 2.3 mph - N/A Snow Light Snow
1:00 AM 23.0 °F - 19.4 °F 86% 30.08 in 15.0 mi Calm Calm - N/A   Overcast
2:00 AM 23 °F - 20 °F 81% 30.09 in 15 mi NNE 3.5 mph - -   Partly Cloudy
2:00 AM 23.0 °F 15.8 °F 19.4 °F 86% 30.09 in 15.0 mi NNE 5.8 mph - N/A   Overcast
3:00 AM 23.0 °F 17.0 °F 19.4 °F 86% 30.08 in 15.0 mi East 4.6 mph - N/A   Overcast
4:00 AM 23.0 °F 17.0 °F 19.4 °F 86% 30.07 in 15.0 mi East 4.6 mph - N/A   Overcast
4:36 AM 23.0 °F 17.0 °F 19.4 °F 86% 30.06 in 3.0 mi East 4.6 mph - N/A Snow Light Snow
5:00 AM 23.0 °F 13.9 °F 21.2 °F 93% 30.05 in 3.0 mi East 8.1 mph - N/A Snow Light Snow
6:00 AM 23.0 °F 13.1 °F 21.2 °F 93% 30.03 in 2.0 mi East 9.2 mph - N/A Snow Light Snow
7:00 AM 23.0 °F 13.1 °F 21.2 °F 93% 29.99 in 2.0 mi East 9.2 mph - N/A Snow Light Snow
7:40 AM 23.0 °F 14.7 °F 21.2 °F 93% 29.98 in 1.0 mi ESE 6.9 mph - N/A Snow Light Snow
8:00 AM 23 °F - 22 °F 96% 29.96 in 1 mi ESE 6.9 mph - - Snow Light Snow
8:00 AM 23.0 °F 13.9 °F 23.0 °F 100% 29.96 in 0.6 mi ESE 8.1 mph - N/A Snow Light Snow
8:24 AM 24.8 °F 15.3 °F 23.0 °F 93% 29.94 in 1.5 mi ESE 9.2 mph - N/A Snow Light Snow
8:38 AM 24.8 °F 12.9 °F 24.8 °F 100% 29.93 in 6.0 mi ESE 13.8 mph 19.6 mph N/A Snow Light Snow
9:00 AM 26.6 °F 15.7 °F 24.8 °F 93% 29.91 in 15.0 mi ESE 12.7 mph - N/A Snow Light Snow
9:38 AM 26.6 °F 14.7 °F 24.8 °F 93% 29.88 in 15.0 mi SE 15.0 mph - N/A Snow Low Drifting Snow
10:00 AM 26.6 °F 14.3 °F 24.8 °F 93% 29.85 in 15.0 mi ESE 16.1 mph 21.9 mph N/A Snow Low Drifting Snow
11:00 AM 30.2 °F 18.5 °F 28.4 °F 93% 29.77 in 15.0 mi SE 17.3 mph 25.3 mph N/A Snow Low Drifting Snow
12:00 PM 33.8 °F 21.9 °F 32.0 °F 93% 29.68 in 12.0 mi SE 21.9 mph 32.2 mph N/A Snow Low Drifting Snow
12:16 PM 33.8 °F 21.6 °F 32.0 °F 93% 29.65 in 12.0 mi SE 23.0 mph 33.4 mph N/A   Overcast
1:00 PM 35.6 °F 24.0 °F 33.8 °F 93% 29.59 in 8.0 mi SSE 23.0 mph 34.5 mph N/A   Overcast
2:00 PM 36 °F - 35 °F 96% 29.52 in 7 mi SSE 18.4 mph - -   Partly Cloudy
2:00 PM 35.6 °F 24.8 °F 35.6 °F 100% 29.52 in 8.0 mi SSE 19.6 mph - N/A   Overcast
2:30 PM 37.4 °F 26.9 °F 37.4 °F 100% 29.47 in 10.0 mi SSE 20.7 mph - N/A   Mostly Cloudy
3:00 PM 39.2 °F 29.0 °F 37.4 °F 93% 29.45 in 12.0 mi SSE 21.9 mph - N/A   Mostly Cloudy
4:00 PM 41.0 °F 30.9 °F 37.4 °F 87% 29.40 in 15.0 mi South 24.2 mph 31.1 mph N/A   Mostly Cloudy
5:00 PM 42.8 °F 34.3 °F 35.6 °F 76% 29.38 in 15.0 mi SSW 19.6 mph 27.6 mph N/A   Mostly Cloudy
5:29 PM 41.0 °F 32.2 °F 35.6 °F 81% 29.38 in 15.0 mi SSW 18.4 mph 27.6 mph N/A   Mostly Cloudy
6:00 PM 41.0 °F 32.8 °F 37.4 °F 87% 29.39 in 15.0 mi SSW 16.1 mph 23.0 mph N/A   Mostly Cloudy
7:00 PM 41.0 °F 32.2 °F 33.8 °F 76% 29.39 in 15.0 mi SW 18.4 mph 29.9 mph N/A   Mostly Cloudy
8:00 PM 41 °F - 35 °F 71% 29.42 in 15 mi WSW 15.0 mph - -   Mostly Cloudy
8:00 PM 41.0 °F 32.8 °F 33.8 °F 76% 29.42 in 15.0 mi WSW 16.1 mph - N/A   Mostly Cloudy
9:00 PM 37.4 °F 32.1 °F 33.8 °F 87% 29.41 in 15.0 mi SW 6.9 mph - N/A   Overcast
9:23 PM 39.2 °F 33.0 °F 35.6 °F 87% 29.42 in 15.0 mi WSW 9.2 mph - N/A Rain Light Rain Showers
9:58 PM 39.2 °F 32.5 °F 33.8 °F 81% 29.42 in 15.0 mi WSW 10.4 mph - N/A   Overcast
10:00 PM 39.2 °F 32.5 °F 33.8 °F 81% 29.42 in 15.0 mi WSW 10.4 mph - N/A   Overcast
11:00 PM 35.6 °F 27.5 °F 26.6 °F 70% 29.43 in 15.0 mi West 11.5 mph 24.2 mph N/A   Mostly Cloudy